CW4221 Weather Reports


Display with metric or nautical units.
time (UTC)temp
F
wind
direction
speed
MPH
gust
MPH
rain 1hr
in
rain 24hr
in
rain mn
in
humidity
%
barometer
mb
20260904205842 97 240 2.0 4.0 0.00 0.00 0.00 42 1015.1
20260904205317 97 138 2.0 7.0 0.00 0.00 0.00 41 1015.2
20260904204813 97 124 4.0 9.0 0.00 0.00 0.00 42 1015.2
20260904204328 97 223 4.0 9.0 0.00 0.00 0.00 42 1015.2
20260904203824 97 133 4.0 8.0 0.00 0.00 0.00 43 1015.3
20260904203324 97 241 3.0 8.0 0.00 0.00 0.00 42 1015.3
20260904202821 97 149 3.0 8.0 0.00 0.00 0.00 43 1015.4
20260904202316 97 218 3.0 8.0 0.00 0.00 0.00 42 1015.5
20260904201811 97 239 2.0 7.0 0.00 0.00 0.00 41 1015.5
20260904201327 97 14 3.0 7.0 0.00 0.00 0.00 43 1015.5
20260904200843 97 355 1.0 6.0 0.00 0.00 0.00 43 1015.6
20260904200317 97 61 2.0 6.0 0.00 0.00 0.00 45 1015.7
20260904195813 96 90 3.0 8.0 0.00 0.00 0.00 43 1015.8
20260904195314 96 128 3.0 8.0 0.00 0.00 0.00 44 1016.0
20260904194832 97 63 1.0 9.0 0.00 0.00 0.00 42 1016.0
20260904194327 96 132 3.0 9.0 0.00 0.00 0.00 44 1016.1
20260904193824 96 223 4.0 8.0 0.00 0.00 0.00 45 1016.2
20260904193341 96 109 3.0 7.0 0.00 0.00 0.00 45 1016.1
20260904192835 96 152 2.0 8.0 0.00 0.00 0.00 45 1016.1
20260904192310 96 179 4.0 8.0 0.00 0.00 0.00 45 1016.1
20260904191826 95 232 3.0 8.0 0.00 0.00 0.00 47 1016.2
20260904191323 95 159 2.0 9.0 0.00 0.00 0.00 47 1016.3
20260904190823 95 123 3.0 9.0 0.00 0.00 0.00 47 1016.4
20260904190321 94 212 0.0 4.0 0.00 0.00 0.00 49 1016.5
20260904185816 95 64 1.0 6.0 0.00 0.00 0.00 47 1016.5
20260904185312 95 120 1.0 8.0 0.00 0.00 0.00 50 1016.6
20260904184829 95 109 4.0 8.0 0.00 0.00 0.00 50 1016.6
20260904184324 94 140 2.0 6.0 0.00 0.00 0.00 50 1016.7
20260904183820 95 209 1.0 7.0 0.00 0.00 0.00 50 1016.7
20260904183321 95 82 2.0 9.0 0.00 0.00 0.00 48 1016.8
20260904182816 94 134 4.0 9.0 0.00 0.00 0.00 48 1016.9
20260904182313 95 250 3.0 6.0 0.00 0.00 0.00 48 1016.9
20260904181811 94 196 3.0 6.0 0.00 0.00 0.00 48 1017.0
20260904181346 93 252 1.0 7.0 0.00 0.00 0.00 48 1017.0
20260904180820 93 262 4.0 7.0 0.00 0.00 0.00 49 1017.0
20260904180316 94 232 3.0 8.0 0.00 0.00 0.00 49 1017.1
20260904175831 94 120 2.0 7.0 0.00 0.00 0.00 49 1017.2
20260904175327 93 250 3.0 7.0 0.00 0.00 0.00 49 1017.2
20260904174827 93 101 3.0 7.0 0.00 0.00 0.00 50 1017.2
20260904174323 92 241 3.0 8.0 0.00 0.00 0.00 50 1017.2
20260904173820 93 265 4.0 8.0 0.00 0.00 0.00 51 1017.4
20260904173316 93 144 2.0 7.0 0.00 0.00 0.00 49 1017.4
20260904172813 93 115 3.0 7.0 0.00 0.00 0.00 49 1017.6
20260904172329 93 164 3.0 8.0 0.00 0.00 0.00 50 1017.6
20260904171825 92 219 2.0 9.0 0.00 0.00 0.00 49 1017.7
20260904171326 92 215 4.0 9.0 0.00 0.00 0.00 53 1017.8
20260904170823 92 234 3.0 10.0 0.00 0.00 0.00 52 1017.9
20260904170318 92 167 4.0 10.0 0.00 0.00 0.00 51 1017.9
20260904165813 91 65 3.0 8.0 0.00 0.00 0.00 54 1017.9
20260904165350 91 200 4.0 8.0 0.00 0.00 0.00 52 1017.9
20260904164824 91 243 4.0 10.0 0.00 0.00 0.00 52 1017.9
20260904164322 91 104 4.0 10.0 0.00 0.00 0.00 54 1018.0
20260904163819 91 223 6.0 10.0 0.00 0.00 0.00 54 1017.9
20260904163339 91 227 3.0 7.0 0.00 0.00 0.00 54 1017.9
20260904162813 91 197 2.0 8.0 0.00 0.00 0.00 53 1017.9
20260904162329 91 257 4.0 8.0 0.00 0.00 0.00 54 1017.9
20260904161824 90 246 3.0 8.0 0.00 0.00 0.00 54 1018.0
20260904161322 90 186 2.0 8.0 0.00 0.00 0.00 54 1018.0
20260904160818 90 225 5.0 8.0 0.00 0.00 0.00 55 1018.0
20260904160314 90 279 2.0 9.0 0.00 0.00 0.00 56 1017.9
20260904155813 90 277 3.0 10.0 0.00 0.00 0.00 54 1018.0
20260904155309 90 215 2.0 7.0 0.00 0.00 0.00 57 1018.0
20260904154825 89 225 1.0 7.0 0.00 0.00 0.00 56 1018.0
20260904154322 89 266 3.0 6.0 0.00 0.00 0.00 57 1018.1
20260904153818 89 283 4.0 9.0 0.00 0.00 0.00 57 1018.1
20260904153335 89 242 5.0 9.0 0.00 0.00 0.00 57 1018.0
20260904152811 89 255 3.0 6.0 0.00 0.00 0.00 56 1018.0
20260904152328 88 222 4.0 6.0 0.00 0.00 0.00 57 1018.0
20260904151809 88 226 3.0 6.0 0.00 0.00 0.00 59 1018.1
20260904151325 87 192 3.0 6.0 0.00 0.00 0.00 62 1018.2
20260904150821 87 282 2.0 5.0 0.00 0.00 0.00 62 1018.1
20260904150317 87 257 3.0 6.0 0.00 0.00 0.00 63 1018.1
20260904145812 86 215 2.0 6.0 0.00 0.00 0.00 64 1018.0
20260904145328 86 211 2.0 6.0 0.00 0.00 0.00 65 1018.0
20260904144823 86 139 2.0 6.0 0.00 0.00 0.00 65 1017.9
20260904144321 85 224 2.0 6.0 0.00 0.00 0.00 68 1018.0
20260904143821 85 225 2.0 4.0 0.00 0.00 0.00 68 1017.9
20260904143318 84 147 1.0 3.0 0.00 0.00 0.00 69 1017.9
20260904142815 84 229 1.0 4.0 0.00 0.00 0.00 69 1017.8
20260904142310 83 232 1.0 4.0 0.00 0.00 0.00 70 1017.8
20260904141827 83 271 2.0 4.0 0.00 0.00 0.00 70 1017.8
20260904141323 83 159 1.0 3.0 0.00 0.00 0.00 71 1017.9
20260904140817 82 264 1.0 4.0 0.00 0.00 0.00 70 1017.9
20260904140333 82 258 2.0 4.0 0.00 0.00 0.00 71 1017.9
20260904135846 82 284 1.0 3.0 0.00 0.00 0.00 73 1017.9
20260904135341 81 161 0.0 2.0 0.00 0.00 0.00 74 1017.9
20260904134820 80 239 1.0 2.0 0.00 0.00 0.00 75 1018.0
20260904134316 80 175 0.0 2.0 0.00 0.00 0.00 77 1018.0
20260904133811 80 69 0.0 2.0 0.00 0.00 0.00 76 1018.0
20260904133327 79 127 0.0 2.0 0.00 0.00 0.00 79 1018.0
20260904132823 78 127 1.0 2.0 0.00 0.00 0.00 79 1018.0
20260904132319 78 145 0.0 2.0 0.00 0.00 0.00 79 1018.0
20260904131813 77 146 0.0 2.0 0.00 0.00 0.00 80 1017.9
20260904131310 77 146 0.0 1.0 0.00 0.00 0.00 81 1017.8
20260904130809 76 146 0.0 0.0 0.00 0.00 0.00 84 1017.7
20260904130325 75 146 0.0 0.0 0.00 0.00 0.00 86 1017.7
20260904125841 74 146 0.0 0.0 0.00 0.00 0.00 87 1017.6
20260904125316 73 145 0.0 0.0 0.00 0.00 0.00 88 1017.6
20260904124832 72 145 0.0 0.0 0.00 0.00 0.00 88 1017.6
20260904124327 72 145 0.0 0.0 0.00 0.00 0.00 89 1017.6
20260904123823 71 145 0.0 0.0 0.00 0.00 0.00 90 1017.6
20260904123319 70 145 0.0 0.0 0.00 0.00 0.00 90 1017.6
20260904122835 70 145 0.0 0.0 0.00 0.00 0.00 92 1017.5
20260904122333 69 145 0.0 0.0 0.00 0.00 0.00 91 1017.4
20260904121809 69 146 0.0 0.0 0.00 0.00 0.00 91 1017.4
20260904121326 69 146 0.0 0.0 0.00 0.00 0.00 90 1017.4
20260904120823 69 145 0.0 0.0 0.00 0.00 0.00 91 1017.4
20260904120318 69 145 0.0 1.0 0.00 0.00 0.00 91 1017.3
20260904115813 69 145 0.0 1.0 0.00 0.00 0.00 91 1017.3
20260904115330 69 146 0.0 1.0 0.00 0.00 0.00 91 1017.2
20260904114827 69 145 0.0 0.0 0.00 0.00 0.00 91 1017.2
20260904114328 69 146 0.0 0.0 0.00 0.00 0.00 91 1017.2
20260904113823 69 145 0.0 0.0 0.00 0.00 0.00 91 1017.2
20260904113320 69 145 0.0 0.0 0.00 0.00 0.00 91 1017.0
20260904112816 69 145 0.0 0.0 0.00 0.00 0.00 90 1017.0
20260904112312 69 145 0.0 0.0 0.00 0.00 0.00 89 1017.0
20260904111828 70 145 0.0 0.0 0.00 0.00 0.00 89 1017.0
20260904111324 70 145 0.0 0.0 0.00 0.00 0.00 90 1016.9
20260904110824 70 145 0.0 0.0 0.00 0.00 0.00 90 1016.9
20260904110320 69 146 0.0 0.0 0.00 0.00 0.00 89 1016.9
20260904105816 70 145 0.0 0.0 0.00 0.00 0.00 89 1016.9
20260904105311 70 145 0.0 2.0 0.00 0.00 0.00 88 1016.9
20260904104827 70 145 0.0 2.0 0.00 0.00 0.00 88 1016.9
20260904104323 70 145 0.0 2.0 0.00 0.00 0.00 88 1016.9
20260904103819 70 145 0.0 0.0 0.00 0.00 0.00 88 1016.8
20260904103335 70 145 0.0 0.0 0.00 0.00 0.00 88 1016.8
20260904102815 71 145 0.0 2.0 0.00 0.00 0.00 87 1016.8
20260904102332 71 145 0.0 2.0 0.00 0.00 0.00 87 1016.7
20260904101828 71 145 0.0 2.0 0.00 0.00 0.00 87 1016.7
20260904101324 71 145 0.0 2.0 0.00 0.00 0.00 87 1016.6
20260904100822 71 145 0.0 2.0 0.00 0.00 0.00 86 1016.7
20260904100335 72 145 0.0 0.0 0.00 0.00 0.00 86 1016.6
20260904095809 72 145 0.0 0.0 0.00 0.00 0.00 87 1016.6
20260904095325 71 145 0.0 0.0 0.00 0.00 0.00 87 1016.6
20260904094825 71 145 0.0 0.0 0.00 0.00 0.00 86 1016.5
20260904094322 71 145 0.0 0.0 0.00 0.00 0.00 87 1016.5
20260904093819 71 145 0.0 0.0 0.00 0.00 0.00 87 1016.4
20260904093336 71 145 0.0 0.0 0.00 0.00 0.00 87 1016.3
20260904092812 71 145 0.0 0.0 0.00 0.00 0.00 86 1016.3
20260904092328 72 145 0.0 0.0 0.00 0.00 0.00 84 1016.2
20260904091824 72 145 0.0 1.0 0.00 0.00 0.00 84 1016.3
20260904091320 72 145 0.0 1.0 0.00 0.00 0.00 84 1016.2
20260904090821 72 145 0.0 0.0 0.00 0.00 0.00 84 1016.2
20260904090337 73 145 0.0 0.0 0.00 0.00 0.00 83 1016.1
20260904085811 74 145 0.0 2.0 0.00 0.00 0.00 82 1016.1
20260904085327 74 145 0.0 2.0 0.00 0.00 0.00 82 1016.1
20260904084823 74 145 0.0 2.0 0.00 0.00 0.00 82 1016.1
20260904084320 74 145 0.0 2.0 0.00 0.00 0.00 82 1016.0
20260904083817 74 145 0.0 0.0 0.00 0.00 0.00 81 1016.0
20260904083318 75 145 0.0 0.0 0.00 0.00 0.00 79 1016.0
20260904082813 76 146 0.0 0.0 0.00 0.00 0.00 77 1016.0
20260904082310 76 145 0.0 0.0 0.00 0.00 0.00 76 1015.9
20260904081827 76 145 0.0 0.0 0.00 0.00 0.00 76 1016.0
20260904081323 76 145 0.0 2.0 0.00 0.00 0.00 76 1015.9
20260904080819 76 145 0.0 2.0 0.00 0.00 0.00 75 1015.9
20260904080315 77 145 0.0 2.0 0.00 0.00 0.00 75 1015.9
20260904075811 77 145 0.0 2.0 0.00 0.00 0.00 74 1015.9
20260904075310 77 145 0.0 1.0 0.00 0.00 0.00 74 1015.9
20260904074847 78 145 0.0 2.0 0.00 0.00 0.00 73 1015.9
20260904074321 78 117 0.0 2.0 0.00 0.00 0.00 73 1016.0
20260904073818 77 230 0.0 2.0 0.00 0.00 0.00 73 1015.9
20260904073313 77 240 0.0 2.0 0.00 0.00 0.00 73 1015.9
20260904072810 78 240 0.0 2.0 0.00 0.00 0.00 73 1015.9
20260904072326 78 240 1.0 2.0 0.00 0.00 0.00 73 1015.9
20260904071822 78 240 0.0 2.0 0.00 0.00 0.00 73 1015.9
20260904071322 78 240 0.0 2.0 0.00 0.00 0.00 72 1015.9
20260904070819 78 205 0.0 2.0 0.00 0.00 0.00 72 1015.9
20260904070315 78 227 0.0 2.0 0.00 0.00 0.00 72 1015.9
20260904065810 78 229 0.0 2.0 0.00 0.00 0.00 72 1015.8
20260904065326 78 229 0.0 2.0 0.00 0.00 0.00 72 1015.8
20260904064843 78 193 0.0 2.0 0.00 0.00 0.00 71 1015.8
20260904064318 79 193 0.0 2.0 0.00 0.00 0.00 71 1015.9
20260904063819 79 125 0.0 2.0 0.00 0.00 0.00 71 1015.9
20260904063315 79 233 0.0 2.0 0.00 0.00 0.00 71 1015.9
20260904062812 79 227 1.0 3.0 0.00 0.00 0.00 70 1015.9
20260904062327 79 150 0.0 3.0 0.00 0.00 0.00 70 1015.9
20260904061824 79 246 1.0 3.0 0.00 0.00 0.00 70 1015.9
20260904061321 79 192 1.0 4.0 0.00 0.00 0.00 70 1015.9
20260904060837 79 222 0.0 4.0 0.00 0.00 0.00 70 1016.0
20260904060312 79 142 0.0 2.0 0.00 0.00 0.00 70 1016.0
20260904055811 79 210 1.0 2.0 0.00 0.00 0.00 70 1016.0
20260904055327 79 238 0.0 2.0 0.00 0.00 0.00 70 1016.0
20260904054844 79 244 0.0 2.0 0.00 0.00 0.00 70 1016.0
20260904054339 79 244 0.0 2.0 0.00 0.00 0.00 69 1015.9
20260904053814 79 170 0.0 2.0 0.00 0.00 0.00 69 1016.0
20260904053311 80 103 0.0 2.0 0.00 0.00 0.00 69 1016.0
20260904052828 80 140 0.0 2.0 0.00 0.00 0.00 69 1016.0
20260904052324 80 140 0.0 2.0 0.00 0.00 0.00 68 1016.0
20260904051824 80 226 1.0 2.0 0.00 0.00 0.00 68 1016.0
20260904051340 80 231 1.0 2.0 0.00 0.00 0.00 68 1015.9
20260904050816 80 241 0.0 2.0 0.00 0.00 0.00 68 1015.9
20260904050332 80 141 0.0 3.0 0.00 0.00 0.00 68 1016.0
20260904045826 80 141 1.0 3.0 0.00 0.00 0.00 68 1016.0
20260904045322 80 200 0.0 2.0 0.00 0.00 0.00 68 1015.9
20260904044817 80 200 0.0 2.0 0.00 0.00 0.00 67 1015.8
20260904044314 80 220 0.0 2.0 0.00 0.00 0.00 67 1015.9
20260904043815 80 220 0.0 2.0 0.00 0.00 0.00 68 1015.8
20260904043332 80 220 0.0 2.0 0.00 0.00 0.00 67 1015.8
20260904042828 81 220 0.0 2.0 0.00 0.00 0.00 66 1015.8
20260904042324 81 220 0.0 2.0 0.00 0.00 0.00 65 1015.9
20260904041820 81 220 0.0 2.0 0.00 0.00 0.00 65 1015.9
20260904041316 81 220 0.0 2.0 0.00 0.00 0.00 65 1015.9
20260904040832 81 220 1.0 2.0 0.00 0.00 0.00 65 1015.8
20260904040327 81 248 1.0 2.0 0.00 0.00 0.00 66 1015.8
20260904035821 81 144 0.0 2.0 0.00 0.00 0.00 66 1015.8
20260904035320 81 144 0.0 2.0 0.00 0.00 0.00 65 1015.7
20260904034817 81 144 0.0 2.0 0.00 0.00 0.00 64 1015.7
20260904034314 82 144 0.0 2.0 0.00 0.00 0.00 64 1015.8
20260904033829 82 144 0.0 2.0 0.00 0.00 0.00 64 1015.8
20260904033345 82 169 0.0 2.0 0.00 0.00 0.00 63 1015.8
20260904032821 83 99 0.0 2.0 0.00 0.00 0.00 62 1015.8
20260904032317 83 99 0.0 2.0 0.00 0.00 0.00 62 1015.8
20260904031813 83 208 0.0 2.0 0.00 0.00 0.00 61 1015.7
20260904031314 83 208 1.0 3.0 0.00 0.00 0.00 61 1015.7
20260904030810 83 165 1.0 3.0 0.00 0.00 0.00 61 1015.7
20260904030326 83 164 0.0 2.0 0.00 0.00 0.00 60 1015.7
20260904025821 84 83 0.0 2.0 0.00 0.00 0.00 60 1015.7
20260904025338 84 149 0.0 2.0 0.00 0.00 0.00 60 1015.7
20260904024814 84 219 0.0 2.0 0.00 0.00 0.00 60 1015.6
20260904024310 84 92 1.0 2.0 0.00 0.00 0.00 60 1015.6
20260904023848 84 188 1.0 2.0 0.00 0.00 0.00 60 1015.6
20260904023343 84 154 0.0 3.0 0.00 0.00 0.00 60 1015.4
20260904022821 84 138 0.0 3.0 0.00 0.00 0.00 60 1015.4
20260904022317 84 115 0.0 2.0 0.00 0.00 0.00 59 1015.4
20260904021811 84 161 0.0 2.0 0.00 0.00 0.00 59 1015.3
20260904021327 84 216 0.0 2.0 0.00 0.00 0.00 59 1015.3
20260904020824 85 215 0.0 2.0 0.00 0.00 0.00 58 1015.2
20260904020320 85 159 1.0 2.0 0.00 0.00 0.00 58 1015.2
20260904015835 85 115 1.0 2.0 0.00 0.00 0.00 58 1015.1
20260904015310 85 186 0.0 2.0 0.00 0.00 0.00 58 1015.0
20260904014810 85 175 0.0 2.0 0.00 0.00 0.00 58 1015.0
20260904014326 85 138 0.0 2.0 0.00 0.00 0.00 57 1014.9
20260904013822 85 138 0.0 2.0 0.00 0.00 0.00 57 1014.8
20260904013318 86 138 0.0 2.0 0.00 0.00 0.00 57 1014.7
20260904012814 86 148 1.0 2.0 0.00 0.00 0.00 57 1014.7
20260904012309 86 99 1.0 3.0 0.00 0.00 0.00 57 1014.6
20260904011826 86 99 0.0 3.0 0.00 0.00 0.00 57 1014.6
20260904011322 86 167 0.0 3.0 0.00 0.00 0.00 57 1014.4
20260904010822 86 167 0.0 2.0 0.00 0.00 0.00 57 1014.4
20260904010338 86 167 0.0 2.0 0.00 0.00 0.00 57 1014.4
20260904005832 86 167 0.0 2.0 0.00 0.00 0.00 56 1014.3
20260904005327 87 167 0.0 2.0 0.00 0.00 0.00 55 1014.3
20260904004823 87 167 0.0 2.0 0.00 0.00 0.00 54 1014.3
20260904004318 88 94 1.0 2.0 0.00 0.00 0.00 54 1014.3
20260904003815 88 82 0.0 2.0 0.00 0.00 0.00 53 1014.3
20260904003310 89 82 0.0 2.0 0.00 0.00 0.00 51 1014.2
20260904002810 90 186 1.0 2.0 0.00 0.00 0.00 50 1014.2
20260904002327 91 186 0.0 2.0 0.00 0.00 0.00 48 1014.2
20260904001823 91 190 1.0 2.0 0.00 0.00 0.00 47 1014.2
20260904001320 91 161 1.0 4.0 0.00 0.00 0.00 47 1014.2
20260904000816 92 187 1.0 6.0 0.00 0.00 0.00 46 1014.1
20260904000312 92 213 2.0 6.0 0.00 0.00 0.00 45 1014.1
20260903235847 93 92 2.0 8.0 0.00 0.00 0.00 45 1014.1
20260903235322 93 163 3.0 8.0 0.00 0.00 0.00 45 1014.1
20260903234823 93 198 2.0 7.0 0.00 0.00 0.00 45 1014.1
20260903234338 94 144 4.0 7.0 0.00 0.00 0.00 44 1014.0
20260903233814 94 209 1.0 5.0 0.00 0.00 0.00 41 1014.0
20260903233331 94 214 1.0 5.0 0.00 0.00 0.00 41 1013.9
20260903232825 94 140 1.0 8.0 0.00 0.00 0.00 41 1013.9
20260903232322 94 224 2.0 8.0 0.00 0.00 0.00 41 1013.9
20260903231840 95 162 2.0 5.0 0.00 0.00 0.00 41 1013.9
20260903231316 95 209 2.0 6.0 0.00 0.00 0.00 41 1014.0
20260903230812 95 109 2.0 7.0 0.00 0.00 0.00 41 1014.0
20260903230312 95 202 2.0 7.0 0.00 0.00 0.00 41 1014.0
20260903225828 95 194 3.0 6.0 0.00 0.00 0.00 41 1014.0
20260903225324 96 234 2.0 8.0 0.00 0.00 0.00 41 1013.9
20260903224841 95 147 4.0 7.0 0.00 0.00 0.00 40 1014.0
20260903224316 96 149 2.0 7.0 0.00 0.00 0.00 40 1013.9
20260903223833 96 71 2.0 7.0 0.00 0.00 0.00 40 1013.9
20260903223328 96 146 2.0 8.0 0.00 0.00 0.00 40 1014.0
20260903222824 96 196 3.0 8.0 0.00 0.00 0.00 40 1013.9
20260903222323 96 180 3.0 8.0 0.00 0.00 0.00 40 1013.9
20260903221838 96 227 3.0 8.0 0.00 0.00 0.00 39 1013.9
20260903221314 96 145 3.0 8.0 0.00 0.00 0.00 39 1013.9
20260903220810 96 311 3.0 9.0 0.00 0.00 0.00 41 1013.9
20260903220325 96 194 3.0 9.0 0.00 0.00 0.00 40 1013.9
20260903215821 96 134 5.0 11.0 0.00 0.00 0.00 40 1013.9
20260903215316 96 139 5.0 11.0 0.00 0.00 0.00 40 1013.9
20260903214812 96 96 5.0 9.0 0.00 0.00 0.00 42 1014.0
20260903214313 96 137 3.0 10.0 0.00 0.00 0.00 42 1014.0
20260903213810 96 170 4.0 10.0 0.00 0.00 0.00 41 1014.0
20260903213347 96 203 3.0 9.0 0.00 0.00 0.00 44 1014.1
20260903212821 97 90 5.0 9.0 0.00 0.00 0.00 41 1014.0
20260903212317 97 175 4.0 13.0 0.00 0.00 0.00 42 1014.2
20260903211813 96 91 5.0 13.0 0.00 0.00 0.00 43 1014.2
20260903211309 96 161 3.0 7.0 0.00 0.00 0.00 43 1014.3
20260903210809 96 144 3.0 9.0 0.00 0.00 0.00 43 1014.3
20260903210325 96 217 3.0 9.0 0.00 0.00 0.00 44 1014.4